Clermont County, Batavia, OH

3:07 AM EST on December 06, 2019 (GMT -0500)
Clermont County, Batavia

Weather History for KI69 - September, 2019

Change the Weather History Date:

Sunday, September 1, 2019

  Actual Average (WUND) Record (WUND)
Temperature  
Mean Temperature 74 °F -  
Max Temperature 87 °F - - (-1)
Min Temperature 61 °F - - (-1)
Cooling Degree Days 9    
Growing Degree Days 24 (Base 50)    
Moisture  
Dew Point 65 °F    
Average Humidity 82    
Maximum Humidity 100    
Minimum Humidity 48    
Precipitation  
Precipitation 0.09 in - - ()
Sea Level Pressure  
Sea Level Pressure 30.12 in    
Wind  
Wind Speed 2 mph ()    
Max Wind Speed 14 mph    
Max Gust Speed -    
Visibility 9.8 miles    
Events      
Averages and records for this station are not official NWS values.
T = Trace of Precipitation, MM = Missing Value Source: Averaged Metar Reports

Daily Weather History Graph

Daily Weather History Graph

Search for Another Location

Airport or City:

Astronomy

Sep. 01, 2019 Rise Set
Actual Time 7:05 AM EDT 8:07 PM EDT
Civil Twilight 6:37 AM EDT 8:35 PM EDT
Nautical Twilight 6:05 AM EDT 9:07 PM EDT
Astronomical Twilight 5:31 AM EDT 9:41 PM EDT
Moon 9:33 AM EDT (9/1) 9:55 PM EDT (9/1)
Length of Visible Light 13h 57m
Length of Day
13h 02m
Waxing Crescent, 8% of the Moon is Illuminated
Sep 1
Waxing Crescent
Sep 5
First Quarter
Sep 14
Full
Sep 21
Last Quarter
Sep 28
New

Hourly Weather History & Observations

Time (EDT) Temp. Heat Index Dew Point Humidity Pressure Visibility Wind Dir Wind Speed Gust Speed Precip Events Conditions
12:19 AM 66.7 °F - 62.1 °F 85% 30.20 in 10.0 mi ENE 3.5 mph - N/A   Mostly Cloudy
12:37 AM 66.6 °F - 62.1 °F 85% 30.19 in 10.0 mi ENE 3.5 mph - N/A   Scattered Clouds
12:55 AM 66.4 °F - 61.9 °F 85% 30.19 in 10.0 mi East 4.6 mph - N/A   Clear
1:16 AM 66.4 °F - 61.7 °F 85% 30.19 in 10.0 mi East 3.5 mph - N/A   Clear
1:35 AM 65.8 °F - 61.7 °F 86% 30.19 in 10.0 mi East 3.5 mph - N/A   Clear
1:59 AM 65.3 °F - 61.7 °F 88% 30.18 in 10.0 mi Calm Calm - N/A   Clear
2:17 AM 64.6 °F - 61.7 °F 90% 30.18 in 10.0 mi Calm Calm - 0.01 in   Clear
2:35 AM 64.8 °F - 62.1 °F 91% 30.17 in 10.0 mi Calm Calm - 0.01 in   Clear
2:55 AM 64.8 °F - 62.1 °F 91% 30.17 in 10.0 mi Calm Calm - 0.01 in   Clear
3:16 AM 63.5 °F - 61.7 °F 94% 30.17 in 10.0 mi Calm Calm - N/A   Clear
3:39 AM 63.5 °F - 61.7 °F 94% 30.16 in 10.0 mi Calm Calm - N/A   Scattered Clouds
3:57 AM 63.5 °F - 61.7 °F 94% 30.16 in 10.0 mi Calm Calm - N/A   Mostly Cloudy
4:15 AM 63.5 °F - 61.7 °F 94% 30.16 in 10.0 mi Calm Calm - N/A   Scattered Clouds
4:35 AM 63.9 °F - 61.7 °F 93% 30.15 in 10.0 mi Calm Calm - N/A   Clear
4:55 AM 63.7 °F - 61.7 °F 93% 30.14 in 10.0 mi Calm Calm - 0.01 in   Clear
5:19 AM 63.5 °F - 61.2 °F 92% 30.15 in 10.0 mi Calm Calm - N/A   Clear
5:37 AM 62.6 °F - 61.3 °F 96% 30.14 in 10.0 mi Calm Calm - N/A   Clear
5:55 AM 62.6 °F - 61.2 °F 95% 30.14 in 10.0 mi Calm Calm - N/A   Clear
6:15 AM 61.9 °F - 61.7 °F 99% 30.14 in 10.0 mi Calm Calm - N/A   Clear
6:35 AM 62.2 °F - 61.7 °F 98% 30.14 in 10.0 mi Calm Calm - N/A   Clear
6:59 AM 61.7 °F - 61.3 °F 99% 30.14 in 7.0 mi Calm Calm - N/A   Clear
7:17 AM 61.9 °F - 61.7 °F 99% 30.14 in 7.0 mi Calm Calm - N/A   Clear
7:35 AM 61.7 °F - 61.7 °F 100% 30.14 in 5.0 mi Calm Calm - N/A   Clear
7:55 AM 62.1 °F - 61.9 °F 99% 30.14 in 5.0 mi Calm Calm - N/A   Clear
8:15 AM 62.6 °F - 62.1 °F 98% 30.14 in 10.0 mi Calm Calm - N/A   Clear
8:38 AM 63.7 °F - 62.6 °F 96% 30.14 in 10.0 mi Calm Calm - N/A   Clear
8:57 AM 64.9 °F - 62.8 °F 93% 30.15 in 10.0 mi Calm Calm - N/A   Clear
9:15 AM 66.0 °F - 63.5 °F 92% 30.16 in 10.0 mi Calm Calm - N/A   Clear
9:35 AM 67.1 °F - 64.0 °F 90% 30.16 in 10.0 mi Calm Calm - N/A   Clear
9:55 AM 68.2 °F - 64.6 °F 88% 30.16 in 10.0 mi Calm Calm - N/A   Clear
10:18 AM 70.5 °F - 65.8 °F 85% 30.17 in 10.0 mi Calm Calm - 0.01 in   Clear
10:36 AM 72.5 °F - 66.6 °F 82% 30.16 in 10.0 mi Calm Calm - 0.01 in   Clear
10:55 AM 74.7 °F - 68.2 °F 80% 30.16 in 10.0 mi Calm Calm - 0.01 in   Clear
11:15 AM 76.5 °F - 69.4 °F 79% 30.16 in 10.0 mi SSW 3.5 mph - N/A   Clear
11:35 AM 77.0 °F - 69.6 °F 78% 30.16 in 10.0 mi SW 5.8 mph - N/A   Clear
11:58 AM 78.8 °F - 69.4 °F 73% 30.16 in 10.0 mi SW 8.1 mph - 0.01 in   Clear
12:16 PM 79.0 °F - 69.6 °F 73% 30.16 in 10.0 mi SW 4.6 mph - N/A   Scattered Clouds
12:35 PM 80.2 °F 83.3 °F 69.6 °F 70% 30.16 in 10.0 mi SW 3.5 mph - N/A   Scattered Clouds
12:58 PM 82.4 °F 87.2 °F 71.6 °F 70% 30.15 in 10.0 mi SW 5.8 mph - N/A   Clear
1:16 PM 82.4 °F 86.3 °F 70.2 °F 66% 30.14 in 10.0 mi SW 8.1 mph - 0.01 in   Scattered Clouds
1:35 PM 82.6 °F 86.6 °F 70.3 °F 66% 30.14 in 10.0 mi SW 8.1 mph - 0.01 in   Scattered Clouds
1:55 PM 82.9 °F 87.2 °F 70.5 °F 66% 30.13 in 10.0 mi SW 8.1 mph - 0.01 in   Clear
2:15 PM 85.3 °F 90.1 °F 70.3 °F 61% 30.12 in 10.0 mi WSW 8.1 mph - N/A   Clear
2:38 PM 85.5 °F 89.8 °F 69.4 °F 59% 30.11 in 10.0 mi SW 6.9 mph - 0.01 in   Clear
2:56 PM 84.4 °F 87.6 °F 68.2 °F 58% 30.10 in 10.0 mi SSW 5.8 mph - 0.01 in   Scattered Clouds
3:15 PM 85.6 °F 89.4 °F 68.9 °F 57% 30.09 in 10.0 mi SW 8.1 mph - N/A   Scattered Clouds
3:36 PM 86.2 °F 90.0 °F 68.7 °F 56% 30.09 in 10.0 mi WSW 9.2 mph - 0.01 in   Clear
3:55 PM 87.1 °F 88.9 °F 65.1 °F 48% 30.09 in 10.0 mi WSW 13.8 mph - 0.01 in   Clear
4:18 PM 86.2 °F 88.8 °F 66.6 °F 52% 30.07 in 10.0 mi SW 8.1 mph - N/A   Scattered Clouds
4:36 PM 86.0 °F 88.5 °F 66.6 °F 52% 30.07 in 10.0 mi SW 6.9 mph - N/A   Clear
4:55 PM 86.0 °F 88.8 °F 66.9 °F 53% 30.06 in 10.0 mi SSW 8.1 mph - N/A   Clear
5:15 PM 86.0 °F 88.2 °F 66.2 °F 51% 30.06 in 10.0 mi WSW 11.5 mph - N/A   Clear
5:35 PM 84.2 °F 86.8 °F 66.9 °F 56% 30.06 in 10.0 mi SW 6.9 mph - N/A   Scattered Clouds
5:58 PM 83.7 °F 86.5 °F 67.3 °F 58% 30.06 in 10.0 mi West 3.5 mph - N/A   Mostly Cloudy
6:16 PM 76.3 °F - 69.1 °F 78% 30.07 in 10.0 mi NNW 12.7 mph - N/A   Overcast
6:35 PM 75.2 °F - 70.5 °F 85% 30.07 in 10.0 mi NW 4.6 mph - 0.01 in   Overcast
6:55 PM 74.8 °F - 68.2 °F 80% 30.07 in 10.0 mi NNE 3.5 mph - 0.01 in   Mostly Cloudy
7:15 PM 74.3 °F - 66.6 °F 77% 30.06 in 10.0 mi Calm Calm - N/A   Mostly Cloudy
7:38 PM 73.8 °F - 67.1 °F 80% 30.07 in 10.0 mi Calm Calm - N/A   Mostly Cloudy
7:56 PM 72.3 °F - 67.8 °F 86% 30.07 in 10.0 mi NNE 3.5 mph - N/A   Mostly Cloudy
8:15 PM 72.5 °F - 67.3 °F 84% 30.06 in 10.0 mi Calm Calm - N/A   Scattered Clouds
8:36 PM 72.7 °F - 67.3 °F 83% 30.06 in 10.0 mi Calm Calm - N/A   Scattered Clouds
8:55 PM 71.6 °F - 67.5 °F 87% 30.07 in 10.0 mi Calm Calm - N/A   Scattered Clouds
9:18 PM 71.1 °F - 67.5 °F 88% 30.07 in 10.0 mi Calm Calm - N/A   Overcast
9:36 PM 71.6 °F - 66.9 °F 85% 30.07 in 10.0 mi Calm Calm - N/A   Scattered Clouds
9:55 PM 72.0 °F - 66.7 °F 84% 30.08 in 10.0 mi Calm Calm - N/A   Clear
10:15 PM 70.0 °F - 67.1 °F 91% 30.08 in 10.0 mi Calm Calm - N/A   Scattered Clouds
10:40 PM 69.4 °F - 67.1 °F 92% 30.08 in 10.0 mi Calm Calm - N/A   Clear
11:16 PM 69.3 °F - 66.6 °F 91% 30.08 in 10.0 mi Calm Calm - 0.01 in   Scattered Clouds
11:35 PM 68.0 °F - 66.7 °F 96% 30.08 in 10.0 mi Calm Calm - 0.01 in   Clear
11:55 PM 68.7 °F - 66.6 °F 93% 30.08 in 10.0 mi Calm Calm - 0.01 in   Scattered Clouds